[[{"header":{"parameterUnit":"m.s-1","parameterCategory":1,"la1":30.2991,"la2":30.254,"lo1":-89.0895,"lo2":-89.0444,"dy":0.0017,"dx":0.0017,"nx":28,"ny":28,"refTime":"2024-08-11T09:00:00:Z","depth":0,"parameterNumber":2,"parameterNumberName":"U-component_of_WINDS"},"data":[0,0,0,0,0,0,0,0,0,0,0,0,0,0,0,0,0,0,0,0,0,0,0,0,0,0,0,0,0,0,0,0,0,0,0,0,0,0,0,0,0,0,0,0,0,0,0,0,0,0,0,0,0,0,0,0,0,0,1.6509,1.6511,0,1.6648,1.665,1.6651,1.669,1.6689,1.6688,1.6687,1.683,1.6834,1.6839,0,0,0,0,0,0,0,0,0,0,0,0,0,1.6277,1.6281,1.6509,1.6511,1.6513,1.6648,1.665,1.6652,1.669,1.6689,1.6688,1.6687,1.6828,1.6834,1.6839,0,0,0,0,0,0,0,0,0,0,0,0,0,1.6393,1.6282,1.6509,1.6548,1.6553,1.6647,1.665,1.6652,1.669,1.6689,1.6688,1.6687,1.6827,1.6833,1.684,1.6905,0,0,1.6861,1.6864,0,0,0,0,0,0,0,0,1.6386,1.6401,1.6541,1.6546,1.6551,1.665,1.662,1.6737,1.669,1.6638,1.6687,1.6686,1.6771,1.6782,1.6811,1.6912,1.6918,1.6861,1.6865,1.6868,1.687,0,0,0,0,0,0,0,1.6378,1.6396,1.6564,1.6543,1.6549,1.6559,1.6574,1.6642,1.671,1.6643,1.6646,1.6662,1.6774,1.6804,1.6815,1.692,1.6861,1.6867,1.6871,1.6874,1.708,1.7082,0,0,0,0,0,0,1.6363,1.6389,1.656,1.6568,1.6464,1.6564,1.6581,1.662,1.6709,1.6721,1.6662,1.6663,1.6793,1.6807,1.682,1.6901,1.6868,1.6875,1.6879,1.7079,1.7081,1.7082,0,0,0,0,0,0,1.6358,1.6378,1.6554,1.6479,1.6503,1.6569,1.6613,1.6623,1.6654,1.6724,1.6736,1.6681,1.6793,1.681,1.6883,1.6906,1.6878,1.6884,1.7077,1.7079,1.7081,1.7064,0,0,0,0,0,0,1.6352,1.6376,1.6402,1.648,1.6506,1.6616,1.6614,1.6627,1.6665,1.6667,1.6745,1.6757,1.6793,1.6873,1.689,1.6915,1.6889,1.7075,1.7078,1.7081,1.7063,1.7066,1.7068,0,0,0,0,0,1.6343,1.6392,1.6403,1.6424,1.654,1.6617,1.6632,1.6673,1.6667,1.6693,1.6738,1.6754,1.6901,1.688,1.69,1.6927,1.7074,1.7077,1.708,1.7062,1.7065,1.7068,0,0,0,0,0,0,1.6316,1.6403,1.6416,1.6492,1.6547,1.6623,1.6657,1.6675,1.6733,1.6732,1.6781,1.6798,1.6868,1.6905,1.688,1.6995,1.6988,1.6995,1.6967,1.6971,1.6973,1.6962,1.6895,0,0,0,0,0,1.6319,1.6374,1.6447,1.6507,1.6534,1.6591,1.6626,1.6653,1.6711,1.6735,1.6785,1.6841,1.69,1.6938,1.6996,1.7069,1.7086,1.7098,1.71,1.7101,1.7107,1.7146,1.7152,1.7093,1.7092,1.7092,0,0,1.6325,1.638,1.6412,1.6503,1.6548,1.6604,1.661,1.6669,1.671,1.6744,1.6815,1.6854,1.692,1.6993,1.7028,1.7026,1.7127,1.7105,1.7106,1.7111,1.715,1.7156,1.7161,1.7095,1.7094,1.7094,0,0,1.6365,1.6412,1.6466,1.6512,1.658,1.6618,1.663,1.6704,1.6731,1.6804,1.6829,1.6879,1.698,1.7025,1.7062,1.7117,1.7134,1.7135,1.7147,1.7185,1.7189,1.7194,1.7212,1.7218,1.714,1.714,1.714,0,1.6364,1.6449,1.6492,1.6549,1.6588,1.662,1.6675,1.6717,1.6801,1.6827,1.6824,1.695,1.6997,1.708,1.7093,1.7122,1.7137,1.7126,1.7185,1.719,1.7195,1.7213,1.722,1.714,1.714,1.714,1.714,0,1.6444,1.6502,1.6538,1.6617,1.666,1.6716,1.6767,1.6805,1.6828,1.6865,1.6938,1.6995,1.7065,1.7087,1.711,1.7173,1.717,1.7176,1.717,1.7199,1.7217,1.7224,1.7139,1.7139,1.7139,1.714,0,0,1.647,1.6572,1.6584,1.662,1.6698,1.6743,1.68,1.6868,1.6899,1.6956,1.7004,1.7087,1.7093,1.7134,1.7163,1.7196,1.7235,1.7198,1.72,1.7202,1.7305,1.7299,1.7307,1.7246,1.7248,1.7249,1.7299,0,1.6518,1.662,1.666,1.6744,1.6797,1.6828,1.6878,1.693,1.6966,1.7017,1.7058,1.7115,1.7119,1.7144,1.7179,1.7222,1.7256,1.722,1.7291,1.7293,1.7272,1.7316,1.7311,1.7355,1.7307,1.7308,1.7309,0,1.6588,1.6644,1.6733,1.6802,1.6826,1.687,1.6934,1.6983,1.7042,1.7067,1.7112,1.7138,1.7198,1.7189,1.7271,1.7246,1.7277,1.7303,1.7306,1.7313,1.7302,1.7323,1.7371,1.7377,1.732,1.732,1.7319,0,1.6596,1.6695,1.676,1.679,1.6873,1.6903,1.6939,1.6998,1.7035,1.7091,1.7116,1.7179,1.7213,1.726,1.7303,1.7293,1.7381,1.7376,1.7402,1.7401,1.7418,1.7416,1.747,1.744,1.744,1.744,1.744,0,1.6645,1.6697,1.6764,1.6804,1.6863,1.6909,1.6966,1.7004,1.7056,1.7103,1.7135,1.7178,1.7232,1.7283,1.7317,1.7379,1.7395,1.7415,1.7423,1.7412,1.7409,1.7432,1.743,1.7442,1.7442,1.7441,1.7441,0,1.6664,1.6711,1.6784,1.6856,1.6876,1.6916,1.6978,1.7018,1.7055,1.7115,1.7131,1.719,1.7251,1.7298,1.7378,1.7401,1.7466,1.7476,1.7446,1.7449,1.7472,1.7469,1.7542,1.7553,1.7517,1.7517,1.7517,0,1.6691,1.6732,1.6809,1.6843,1.6878,1.6933,1.6971,1.7017,1.7055,1.7126,1.7157,1.722,1.7273,1.7368,1.7418,1.7479,1.7489,1.7511,1.7499,1.7485,1.7488,1.7484,1.7488,1.7512,1.7512,1.7512,1.7512,0,1.6734,1.6755,1.6809,1.6871,1.6915,1.6967,1.7018,1.7044,1.7099,1.7141,1.7203,1.7244,1.7325,1.7386,1.7452,1.7489,1.7509,1.7515,1.7524,1.7512,1.7493,1.7502,1.7448,1.7513,1.7513,1.7513,1.7513,1.7513,1.6757,1.6794,1.6854,1.6913,1.6956,1.7003,1.7044,1.7086,1.7139,1.7208,1.7232,1.7296,1.7354,1.7444,1.7481,1.7531,1.7532,1.7545,1.7549,1.7551,1.7549,1.7485,1.7544,1.7544,1.7544,1.7544,1.7544,0,1.68,1.684,1.6894,1.6964,1.701,1.7026,1.7083,1.712,1.7176,1.7229,1.728,1.7351,1.741,1.7465,1.7527,1.7556,1.7567,1.7571,1.7569,1.7577,1.7545,1.7531,1.7561,1.7561,1.7561,1.7561,1.7561,1.7561,1.6828,1.6891,1.6919,1.7004,1.7044,1.7106,1.7138,1.7181,1.7223,1.73,1.735,1.7385,1.7438,1.7504,1.7559,1.7574,1.7594,1.7596,1.7612,1.7582,1.7579,1.7577,1.7563,1.76,1.76,1.7639,1.764,1.764]},{"header":{"parameterUnit":"m.s-1","parameterCategory":1,"la1":30.2991,"la2":30.254,"lo1":-89.0895,"lo2":-89.0444,"dy":0.0017,"dx":0.0017,"nx":28,"ny":28,"refTime":"2024-08-11T09:00:00:Z","depth":0,"parameterNumber":3,"parameterNumberName":"V-component_of_WINDS"},"data":[0,0,0,0,0,0,0,0,0,0,0,0,0,0,0,0,0,0,0,0,0,0,0,0,0,0,0,0,0,0,0,0,0,0,0,0,0,0,0,0,0,0,0,0,0,0,0,0,0,0,0,0,0,0,0,0,0,0,3.7533,3.7533,0,3.7475,3.7475,3.7474,3.7408,3.7407,3.7406,3.7405,3.7344,3.7343,3.7343,0,0,0,0,0,0,0,0,0,0,0,0,0,3.7585,3.7584,3.7533,3.7533,3.7532,3.7475,3.7475,3.7474,3.7408,3.7407,3.7406,3.7405,3.7344,3.7344,3.7343,0,0,0,0,0,0,0,0,0,0,0,0,0,3.7548,3.7584,3.7533,3.7492,3.7488,3.7476,3.7475,3.7474,3.7408,3.7407,3.7405,3.7404,3.7345,3.7344,3.7343,3.7365,0,0,3.7339,3.7339,0,0,0,0,0,0,0,0,3.7551,3.7547,3.7499,3.7495,3.749,3.7447,3.747,3.7437,3.7409,3.7439,3.7405,3.7403,3.738,3.7376,3.7368,3.7363,3.736,3.7339,3.7339,3.7338,3.7338,0,0,0,0,0,0,0,3.7553,3.7549,3.751,3.7498,3.7493,3.7476,3.7469,3.7464,3.7418,3.7436,3.7431,3.7425,3.7377,3.7369,3.7366,3.7359,3.7339,3.7338,3.7338,3.7337,3.7368,3.7369,0,0,0,0,0,0,3.7562,3.7551,3.7512,3.7509,3.7517,3.7476,3.7469,3.7463,3.7418,3.741,3.7426,3.7422,3.7372,3.7367,3.7364,3.7386,3.7338,3.7337,3.7337,3.7366,3.7368,3.737,0,0,0,0,0,0,3.7564,3.7559,3.7514,3.7528,3.7521,3.7477,3.7471,3.7462,3.7454,3.7411,3.7402,3.7427,3.737,3.7365,3.7365,3.7383,3.7337,3.7336,3.7364,3.7367,3.7369,3.7432,0,0,0,0,0,0,3.7565,3.756,3.7569,3.7529,3.7521,3.7518,3.7472,3.7462,3.7453,3.7447,3.7409,3.7401,3.7369,3.7367,3.7364,3.7381,3.7335,3.7363,3.7365,3.7368,3.7428,3.7436,3.7443,0,0,0,0,0,3.7567,3.7589,3.757,3.7565,3.7531,3.7519,3.7514,3.7477,3.7455,3.7462,3.7434,3.7402,3.7382,3.7368,3.7364,3.738,3.7361,3.7365,3.7368,3.7425,3.7435,3.7443,0,0,0,0,0,0,3.7632,3.7583,3.7561,3.7571,3.755,3.7508,3.7517,3.7489,3.7473,3.7468,3.7422,3.7414,3.7419,3.74,3.7385,3.7399,3.7367,3.7369,3.7411,3.742,3.7428,3.7432,3.7334,0,0,0,0,0,3.7647,3.7642,3.76,3.7612,3.7603,3.7562,3.7555,3.7528,3.7504,3.7495,3.7467,3.7444,3.7432,3.7425,3.7412,3.7425,3.7415,3.7435,3.7442,3.7448,3.7451,3.7455,3.7462,3.738,3.738,3.738,0,0,3.7678,3.7651,3.7651,3.7624,3.7605,3.7599,3.7555,3.7551,3.7547,3.7494,3.7492,3.7471,3.7442,3.7449,3.745,3.7433,3.7471,3.7452,3.7458,3.7457,3.7459,3.7467,3.7473,3.7382,3.7382,3.7382,0,0,3.7733,3.7713,3.772,3.7701,3.7672,3.7645,3.7647,3.761,3.7593,3.7591,3.7551,3.7545,3.7526,3.7507,3.7494,3.7541,3.7511,3.7538,3.7577,3.7581,3.7587,3.7593,3.7608,3.7614,3.7541,3.7541,3.7541,0,3.7775,3.7767,3.7727,3.7726,3.7715,3.7668,3.7674,3.7658,3.7626,3.7619,3.7601,3.7575,3.7553,3.7553,3.7565,3.7557,3.7557,3.7542,3.759,3.7595,3.7599,3.7613,3.7619,3.7545,3.7544,3.7544,3.7544,0,3.782,3.7814,3.7824,3.7794,3.7785,3.7788,3.7748,3.7742,3.7716,3.7691,3.7688,3.766,3.7639,3.7638,3.7612,3.7634,3.7624,3.7599,3.7565,3.7611,3.7624,3.7629,3.755,3.7548,3.7547,3.7547,0,0,3.7912,3.7861,3.7865,3.7851,3.7815,3.781,3.781,3.7791,3.7787,3.7766,3.7764,3.7749,3.7725,3.7711,3.7683,3.7687,3.7724,3.766,3.7659,3.7672,3.7745,3.7764,3.7771,3.7704,3.7705,3.7706,3.7747,0,3.7959,3.7958,3.7922,3.793,3.7924,3.7878,3.7878,3.7856,3.7832,3.7823,3.7796,3.7785,3.7755,3.7746,3.7748,3.7719,3.7738,3.7716,3.7701,3.7701,3.7708,3.7777,3.7798,3.7838,3.7752,3.7752,3.7753,0,3.8014,3.7997,3.8004,3.7968,3.7964,3.7965,3.7943,3.7935,3.7909,3.7891,3.7876,3.7844,3.784,3.781,3.7803,3.7789,3.7781,3.7766,3.7766,3.7762,3.7729,3.7774,3.785,3.7856,3.776,3.776,3.7759,0,3.8079,3.8058,3.8059,3.8049,3.8007,3.8008,3.799,3.7962,3.7953,3.7934,3.7927,3.7908,3.7897,3.7883,3.7846,3.7828,3.7844,3.781,3.7828,3.7829,3.7832,3.7832,3.7906,3.7829,3.7829,3.7829,3.7829,0,3.8134,3.814,3.8088,3.8089,3.8094,3.8053,3.8058,3.8036,3.8012,3.8007,3.7966,3.7962,3.7915,3.7905,3.7876,3.7875,3.787,3.7855,3.7847,3.7858,3.786,3.7851,3.7847,3.783,3.783,3.783,3.783,0,3.8207,3.8173,3.8171,3.8132,3.8122,3.8127,3.8092,3.8091,3.8065,3.8059,3.8055,3.8013,3.7999,3.7962,3.7938,3.7919,3.7925,3.7911,3.7934,3.7929,3.7948,3.7946,3.8018,3.8024,3.7944,3.7945,3.7946,0,3.8244,3.8248,3.8209,3.8203,3.8187,3.8178,3.8168,3.8127,3.8118,3.8088,3.809,3.8073,3.8057,3.8037,3.8004,3.7985,3.797,3.7996,3.7967,3.7977,3.7969,3.7969,3.7968,3.8003,3.8004,3.8005,3.8005,0,3.8313,3.8296,3.8283,3.8265,3.8254,3.8237,3.8218,3.8215,3.817,3.8162,3.8147,3.8135,3.8111,3.8094,3.8071,3.8051,3.802,3.8015,3.8018,3.8028,3.8041,3.8033,3.795,3.8013,3.8012,3.8012,3.8011,3.8011,3.8368,3.8369,3.8342,3.8329,3.831,3.8293,3.829,3.8263,3.8251,3.8228,3.8205,3.8193,3.8165,3.813,3.8113,3.8102,3.8086,3.809,3.8091,3.8092,3.8097,3.8044,3.8097,3.8097,3.8097,3.8097,3.8096,0,3.8434,3.8414,3.8403,3.8378,3.8367,3.834,3.8318,3.831,3.8301,3.8278,3.8263,3.8246,3.823,3.8196,3.8175,3.8173,3.8158,3.8169,3.8168,3.8164,3.8113,3.8112,3.8181,3.8181,3.8181,3.8181,3.8181,3.8181,3.8467,3.8466,3.8446,3.8435,3.8415,3.8404,3.8393,3.8376,3.8358,3.8341,3.8327,3.8306,3.8278,3.8255,3.8238,3.8228,3.8222,3.8237,3.8223,3.8176,3.8168,3.816,3.8159,3.8237,3.8237,3.8275,3.8275,3.8275]}]]